www.pogodaiklimat.ru
Время
и дата
18:53 30.12
19:53 30.12
20:53 30.12
21:30 30.12
21:53 30.12
22:10 30.12
22:27 30.12
22:48 30.12
22:53 30.12
23:28 30.12
23:53 30.12
00:12 31.12
00:30 31.12
00:38 31.12
00:53 31.12
01:36 31.12
01:43 31.12
01:53 31.12
02:53 31.12
03:08 31.12
03:16 31.12
03:36 31.12
03:43 31.12
03:53 31.12
04:04 31.12
04:17 31.12
04:53 31.12
05:16 31.12
05:21 31.12
05:53 31.12
06:14 31.12
06:53 31.12
07:18 31.12
07:25 31.12
07:53 31.12
08:00 31.12
08:53 31.12
09:53 31.12
10:00 31.12
10:53 31.12
11:05 31.12
11:53 31.12
12:53 31.12
13:53 31.12
14:53 31.12
15:20 31.12
15:53 31.12
16:53 31.12
Ветер
(напр.,м/с)
Видим. Явления Облачность Т
(С)
Тd
(С)
f
(%)
Тe
(С)
Тes
(С)
Комфортность P
(гПа)
Po
(гПа)
Тmin
(С)
Tmax
(С)
R
(мм)
R24
(мм)
S
(см)
ЮЗ 2 16 км 10/10 180 м +24.4 +22.8 91 +32 +32 очень
душно
1014.5 1010.1
ЮЗ 1 14 км 10/10 210 м +24.4 +22.8 91 +32 +32 очень
душно
1014.7 1010.1
ЮЗ 2 14 км 10/10 210 м +23.9 +22.8 94 +32 +32 очень
душно
1015.0 1010.5
ЮЗ 2 10 км дымка 10/10 120 м +23.9 +22.8 94 +32 +32 очень
душно
1010.5
ЮЗ 2 13 км 10/10 120 м +23.9 +22.8 94 +32 +32 очень
душно
1015.0 1010.5
ЮЗ 2 14 км 10/10 150 м +23.9 +22.8 94 +32 +32 очень
душно
1010.5
ЮЗ 2 4 км дымка 10/10 90 м +23.3 +22.8 97 +32 +32 очень
душно
1010.5
ЮЗ 2 2 км дымка 10/10 60 м +23.0 +23.0 100 +32 +32 очень
душно
1010.5
ЮЗ 1 2 км дымка 10/10 60 м +23.3 +22.8 97 +32 +32 очень
душно
1014.8 1010.5
ЮЗ 1 5 км дымка 10/10 60 м +23.3 +22.8 97 +32 +32 очень
душно
1010.1
ЮЗ 1 6 км дымка 10/10 90 м +23.3 +22.8 97 +32 +32 очень
душно
1014.7 1010.1 +23.3 +24.4
ЮЗ 2 3 км дымка 10/10 90 м +23.3 +22.8 97 +32 +32 очень
душно
1010.1
ЮЗ 2 1 км дымка 10/10 60 м +22.8 +22.8 100 +31 +31 очень
душно
1010.5
ЮЗ 2 2 км дымка 10/10 60 м +22.8 +22.8 100 +31 +31 очень
душно
1010.5
ЮЗ 1 2 км дымка 10/10 60 м +22.8 +22.8 100 +31 +31 очень
душно
1014.7 1010.1
Ю 2 3 км дымка 10/10 60 м +22.8 +22.2 96 +31 +31 очень
душно
1010.1
Ю 2 1 км дымка 10/10 60 м +22.8 +22.2 96 +31 +31 очень
душно
1010.1
ЮЗ 2 1 км дымка ?/? +22.2 +22.2 100 +30 +30 очень
душно
1014.7 1010.1
ЮЗ 1 2 км дымка ?/? +22.8 +22.2 96 +31 +31 очень
душно
1014.6 1010.1
ЮЗ 2 4 км дымка 10/10 60 м +22.8 +22.2 96 +31 +31 очень
душно
1010.1
ЮЗ 2 5 км дымка 10/10 60 м +22.8 +22.2 96 +31 +31 очень
душно
1010.1
Ю 2 3 км дымка 10/10 60 м +22.2 +22.2 100 +30 +30 очень
душно
1010.1
Ю 2 2 км дымка 10/10 60 м +22.2 +22.2 100 +30 +30 очень
душно
1010.1
Ю 2 800 м туман 10/10 60 м +22.2 +21.7 97 +29 +29 очень
душно
1014.6 1010.1
Ю 2 400 м туман ?/? +21.7 +21.7 100 +28 +28 душно 1009.8
Ю 2 800 м туман ?/? +21.7 +21.7 100 +28 +28 душно 1010.1
Ю 2 800 м туман ?/? +22.2 +21.7 97 +29 +29 очень
душно
1014.5 1010.1
ЮЗ 2 2 км дымка 10/10 60 м +22.2 +22.2 100 +30 +30 очень
душно
1010.5
ЮЗ 2 5 км дымка 10/10 60 м +22.2 +22.2 100 +30 +30 очень
душно
1010.5
ЮЗ 2 16 км 10/10 120 м +22.2 +21.7 97 +29 +29 очень
душно
1015.1 1010.8 +21.7 +23.3
ЮЗ 1 16 км 10/10 180 м +22.2 +21.7 97 +29 +29 очень
душно
1010.8
Ю 2 16 км 10/10 150 м +22.2 +21.7 97 +29 +29 очень
душно
1015.5 1011.1
Ю 1 16 км 10/10 150 м +22.2 +21.7 97 +29 +29 очень
душно
1011.5
Ю 1 16 км 10/10 150 м +22.2 +21.7 97 +29 +29 очень
душно
1011.5
Ю 1 11 км 10/10 150 м +22.2 +22.2 100 +30 +30 очень
душно
1016.3 1011.8
Ю 1 11 км 10/10 90 м +22.8 +22.2 96 +31 +31 очень
душно
1011.8
Ю 3 16 км 10/10 180 м +23.9 +22.2 90 +31 +31 очень
душно
1016.7 1012.1
Ю 2 16 км 10/10 180 м +25.0 +22.2 84 +32 +32 очень
душно
1017.2 1012.8
ЮЗ 2 16 км 10/10 360 м +25.6 +22.2 82 +33 +33 очень
душно
1012.8
Ю 2 16 км 10/10 360 м +25.6 +22.8 85 +34 +34 очень
душно
1016.9 1012.5
ЮЗ 2 16 км 10/10 150 м +25.6 +22.2 82 +33 +33 очень
душно
1012.1
Ю 2 16 км 10/10 270 м +25.6 +22.8 85 +34 +34 очень
душно
1015.6 1011.1 +22.2 +26.1 0.3
Ю 3 16 км 10/10 270 м +25.0 +22.8 88 +33 +33 очень
душно
1014.8 1010.5
Ю 2 16 км 10/10 210 м +25.6 +22.8 85 +34 +34 очень
душно
1014.4 1009.8
Ю 2 16 км 10/10 150 м +24.4 +22.8 91 +32 +32 очень
душно
1014.2 1009.8
Ю 2 16 км слабый дождь 10/10 90 м +24.4 +23.3 94 +33 +33 очень
душно
1009.8
Ю 3 16 км 10/10 120 м +23.9 +22.8 94 +32 +32 очень
душно
1014.1 1009.8
Ю 2 16 км 10/10 120 м +23.9 +22.8 94 +32 +32 очень
душно
1014.2 1009.8
Местоположение метеостанции Pensacola Regional Airport: широта 30.4781 долгота -87.1869 высота над уровнем моря 36 м.
В архиве по умолчанию представлена погода в Пенсаколе за последние 1-2 суток. Обновление информации о фактической погоде в базе происходит ежечасно! Архивные данные за месяц целиком и за предыдущие месяцы Вы можете получить, выбрав интересующий диапазон дат из раскрывающегося списка и нажав кнопку "Ввод!".
Внимание! Архив погоды МЕТАР в базе сайта по станциям, не включенным в климатический монитор, хранится не более 60 дней. Нет смысла пытаться выбрать более раннюю дату.
*Определитесь, кто Вы:
Внимание! Время в таблицах - местное (без учета летнего времени). Для получения всемирного времени необходимо вычесть поправку, которая равна -6 ч.
Смотрите также архив погоды в соседних городах и на ближайших метеорологических станциях:
Партнеры нашего сайта:      
Пояснения к столбцам:
  • Ветер - указаны скорость ветра в м/с - средняя за 10 мин, порывы в срок и между сроками (в фигурных скобках) и направление, откуда дует ветер: С - северный,
  • СВ - северо-восточный, В - восточный, ЮВ - юго-восточный, Ю - южный, ЮЗ - юго-западный, З - западный, СЗ - северо-западный.
  • Видимость - горизонтальная дальность видимости в метрах или километрах. При видимости от 1 до 10 км при отсутствии осадков обычно наблюдается дымка, при ухудшении видимости до 1 км и менее - туман. В сухую погоду видимость может ухудшаться дымом, пылью или мглою.
  • Явления - указаны атмосферные явления, наблюдавшиеся в срок или в последний час перед сроком; фигурными скобками обозначены явления, наблюдавшиеся между сроками (за 1-3 часа до срока); квадратными скобками обозначены град или гололедные отложения с указанием их диаметра в мм.
  • Облачность - указаны через наклонную черту общая и нижняя облачность в баллах и высота нижней границы облаков в метрах; квадратными скобками обозначены формы облаков: Ci - перистые, Cs - перисто-слоистые, Cc - перисто-кучевые, Ac - высококучевые, As - высокослоистые, Sc - слоисто-кучевые, Ns - слоисто-дождевые, Cu - кучевые, Cb - кучево-дождевые. Подробнее классификацию облаков см. в Атласе облаков (PDF).
  • T - Температура воздуха - температура, измеренная на высоте 2 м над землей.
  • Td - Температура точки росы - температура, при понижении до которой содержащийся в воздухе водяной пар достигнет насыщения.
  • f - Относительная влажность воздуха - влажноcть воздуха, измеренная на высоте 2 м над землей.
  • Te - Эффективная температура - температура, которую ощущает одетый по сезону человек в тени. Характеристика душности погоды. При расчете учитывается влияние влажности воздуха и скорости ветра на теплоощущения человека.
  • Tes - Эффективная температура на солнце - температура, которую ощущает человек, с поправкой на солнечный нагрев. Характеристика знойности погоды. Зависит от высоты солнца над горизонтом, облачности и скорости ветра. Ночью, в пасмурную погоду, а также при ветре 12 м/с и более поправка равна нулю.
  • P - Атмосферное давление - приведенное к уровню моря атмосферное давление.
  • Po - Атмосферное давление - измеренное на уровне метеостанции атмосферное давление.
  • Tmin - Минимальная температура - минимум температуры воздуха на высоте 2 м над землей.
  • Tmax - Максимальная температура - максимум температуры воздуха на высоте 2 м над землей.
  • R - Количество осадков - Количество выпавших осадков за период времени, мм. При наведении курсора мыши на число - период времени, за который выпало указанное количество осадков.
  • R24 - Количество осадков - Количество выпавших осадков за 24 часа, мм.
  • S - Снежный покров - Высота снежного покрова, см. При наведении курсора мыши на число - состояние снежного покрова и степень покрытия местности в баллах.